Regional Weather Roundup
Issued by NWS Midland/Odessa, TX

Home | Current Version | Previous Version | Text Only | Print | Product List | Glossary On
Versions: 1 2 3 4 5 6 7 8 9 10 11 12 13 14 15 16 17 18 19 20 21 22 23 24 25 26 27 28 29 30 31 32 33 34 35 36 37 38 39 40 41 42 43 44 45 46 47 48 49 50
000
ASUS44 KMAF 231110
RWRMAF
MIDLAND AREA WEATHER ROUNDUP
NATIONAL WEATHER SERVICE MIDLAND TX
500 AM CST THU FEB 23 2017

...IN SOUTHWEST TEXAS AND SOUTHEAST NEW MEXICO...

CITY           SKY/WX    TMP DP  RH WIND       PRES   REMARKS
ALPINE         CLEAR     58  20  22 W10       29.89F
ANDREWS        FAIR      62  27  26 SW8       29.72S
ARTESIA        CLEAR     59  28  31 SW18G25   29.70S
BIG SPRING     CLEAR     52  34  50 SE7       29.72F
CARLSBAD       CLEAR     68  30  24 SW21      29.69S
DRYDEN           N/A     55  33  43 W9        29.71S
FORT STOCKTON  CLEAR     58  23  26 SW13      29.74F
GUAD PASS      CLEAR     56  25  30 W21G26    29.85F
HOBBS          CLEAR     50  25  37 SW8       29.73S
MARFA          CLOUDY    37  20  50 N5        29.89F WCI  33
MIDLAND AIRPK  CLEAR     60  30  32 SW9       29.71S
MIDLAND INTL   CLEAR     57  31  37 S8        29.71F
ODESSA         CLEAR     52  29  41 W3        29.73S
PECOS          CLEAR     48  23  37 S5        29.72S
PRESIDIO       FAIR      57  19  23 N8        29.81S
SEMINOLE       CLEAR     49  29  45 SW7       29.72F
SNYDER         CLEAR     55  35  47 S10       29.69S
WINK           CLEAR     47  28  47 SE5       29.71S
$$
...OTHER STATIONS IN TEXAS...

CITY           SKY/WX    TMP DP  RH WIND       PRES   REMARKS
ABILENE        CLEAR     62  37  39 SW13      29.65F
AMARILLO       PTCLDY    48  33  56 S7        29.65F
AUSTIN         CLEAR     50  44  80 CALM      29.71F
BROWNSVILLE    FOG       59  59 100 SE3       29.74S VSB 1/2
CORPUS CHRISTI FOG       60  60 100 SE9       29.72S VSB 1/2
DALLAS FTW     CLEAR     59  49  69 S9        29.62S
DEL RIO        CLEAR     55  40  56 NE3       29.67R
EL PASO        CLEAR     59  30  33 S9        29.79F
HOUSTON INT    CLEAR     53  51  93 CALM      29.75R
LUBBOCK        PTCLDY    47  30  51 W7        29.67F
SAN ANGELO     CLEAR     46  38  73 S7        29.69F
SAN ANTONIO    CLEAR     52  44  74 NW3       29.72F
WACO           CLEAR     55  50  83 S9        29.67S
WICHITA FALLS  NOT AVBL
$$
...OTHER LOCATIONS IN NEW MEXICO...

CITY           SKY/WX    TMP DP  RH WIND       PRES   REMARKS
ALAMAGORDO     CLEAR     54  32  43 SE14      29.79F
ALBUQUERQUE    CLEAR     44  28  53 S10       29.68F WCI  39
CANNON AFB     CLOUDY    50  31  48 SW8       29.67F
CLOVIS         CLOUDY    50  30  46 W12       29.68F
HOLLOMAN AFB   CLEAR     53  31  44 SE9       29.80F
ROSWELL        CLEAR     52  29  41 S7          N/A
RUIDOSO        CLOUDY    50  28  43 SW23G35   29.80F
SANTA FE       CLEAR     39  24  55 S3        29.69F
TRUTH OR CONSE PTCLDY    53  34  48 SW13      29.74F
TUCUMCARI      PTCLDY    42  32  67 SW5       29.64F WCI  39
$$




USA.gov is the U.S. government's official web portal to all federal, state and local government web resources and services.